,,,PA_Meas_PMT16A,,PR_Meas_QMR101_102,,RH_Meas_QMH101,,SR_Meas_QMS101,,TA_Meas_QMH101,,GenWind,,GenWind,
date,time,status,PA,status,PR,status,RH,status,SR,status,TA,status,DirAvg,status,SpdAvg,
2009-12-01, 00:00:04,VALID,1004.14,VALID,0,VALID,82.9336,VALID,0,VALID,25.4363,VALID,18,VALID,0.153516,
2009-12-01, 00:01:04,VALID,1004.07,VALID,0,VALID,83.3684,VALID,0,VALID,25.4363,VALID,198,VALID,0.354297,
2009-12-01, 00:02:04,VALID,1004,VALID,0,VALID,83.4065,VALID,0,VALID,25.4149,VALID,198,VALID,0.29375,
2009-12-01, 00:03:04,VALID,1003.92,VALID,0,VALID,83.0098,VALID,0,VALID,25.3955,VALID,95,VALID,0.627734,
2009-12-01, 00:04:04,VALID,1003.88,VALID,0,VALID,83.7422,VALID,0,VALID,25.3974,VALID,34,VALID,0.567578,
2009-12-01, 00:05:04,VALID,1003.84,VALID,0,VALID,83.6964,VALID,0,VALID,25.339,VALID,34,VALID,0.444141,
2009-12-01, 00:06:04,VALID,1003.82,VALID,0,VALID,84.528,VALID,0,VALID,25.3,VALID,10,VALID,0.786719,
2009-12-01, 00:07:04,VALID,1003.82,VALID,0,VALID,84.9781,VALID,0,VALID,25.2416,VALID,339,VALID,0.450391,
2009-12-01, 00:08:04,VALID,1003.79,VALID,0,VALID,84.6272,VALID,0,VALID,25.1813,VALID,346,VALID,0.641016,
2009-12-01, 00:09:04,VALID,1003.78,VALID,0,VALID,84.6577,VALID,0,VALID,25.1813,VALID,355,VALID,0.697266,
2009-12-01, 00:10:04,VALID,1003.77,VALID,0,VALID,84.9705,VALID,0,VALID,25.1618,VALID,357,VALID,0.564844,
2009-12-01, 00:11:04,VALID,1003.76,VALID,0,VALID,85.2451,VALID,0.100563,VALID,25.1832,VALID,342,VALID,0.107813,
2009-12-01, 00:12:04,VALID,1003.73,VALID,0,VALID,85.5274,VALID,0,VALID,25.1618,VALID,340,VALID,0,
2009-12-01, 00:13:04,VALID,1003.72,VALID,0,VALID,85.8325,VALID,0,VALID,25.1618,VALID,340,VALID,0.00117188,
2009-12-01, 00:14:04,VALID,1003.69,VALID,0,VALID,85.5732,VALID,0,VALID,25.1832,VALID,287,VALID,0.541016,
2009-12-01, 00:15:04,VALID,1003.66,VALID,0,VALID,85.4892,VALID,0,VALID,25.1813,VALID,268,VALID,0.457422,
2009-12-01, 00:16:04,VALID,1003.64,VALID,0,VALID,85.3977,VALID,0,VALID,25.2202,VALID,321,VALID,0.167578,
2009-12-01, 00:17:04,VALID,1003.62,VALID,0,VALID,85.2604,VALID,0,VALID,25.2416,VALID,323,VALID,0.341406,
2009-12-01, 00:18:04,VALID,1003.58,VALID,0,VALID,85.3824,VALID,0,VALID,25.2592,VALID,338,VALID,0.546484,
2009-12-01, 00:19:04,VALID,1003.61,VALID,0,VALID,85.4587,VALID,0,VALID,25.2592,VALID,346,VALID,0.59375,
2009-12-01, 00:20:04,VALID,1003.64,VALID,0,VALID,85.6571,VALID,0,VALID,25.2806,VALID,356,VALID,0.654688,
2009-12-01, 00:21:04,VALID,1003.7,VALID,0,VALID,85.0925,VALID,0,VALID,25.2397,VALID,345,VALID,0.835547,
2009-12-01, 00:22:04,VALID,1003.7,VALID,0,VALID,85.2299,VALID,0,VALID,25.2397,VALID,352,VALID,0.7125,
2009-12-01, 00:23:04,VALID,1003.67,VALID,0,VALID,85.3367,VALID,0,VALID,25.2397,VALID,349,VALID,0.595312,
2009-12-01, 00:24:04,VALID,1003.66,VALID,0,VALID,85.3824,VALID,0,VALID,25.2611,VALID,360,VALID,0.993359,
2009-12-01, 00:25:04,VALID,1003.65,VALID,0,VALID,84.7492,VALID,0,VALID,25.3,VALID,349,VALID,1.09531,
2009-12-01, 00:26:04,VALID,1003.67,VALID,0,VALID,84.9628,VALID,0,VALID,25.3195,VALID,2,VALID,0.460547,
2009-12-01, 00:27:04,VALID,1003.63,VALID,0,VALID,84.94,VALID,0.100563,VALID,25.339,VALID,360,VALID,0.586328,
2009-12-01, 00:28:04,VALID,1003.63,VALID,0,VALID,84.8408,VALID,0.100563,VALID,25.339,VALID,360,VALID,0.242188,
2009-12-01, 00:29:04,VALID,1003.67,VALID,0,VALID,85.5274,VALID,0,VALID,25.337,VALID,16,VALID,0.166406,
2009-12-01, 00:30:04,VALID,1003.72,VALID,0,VALID,86.0461,VALID,0,VALID,25.3565,VALID,3,VALID,0.587109,
2009-12-01, 00:31:04,VALID,1003.73,VALID,0,VALID,86.1682,VALID,0,VALID,25.337,VALID,296,VALID,0.49375,
2009-12-01, 00:32:04,VALID,1003.77,VALID,0,VALID,86.6641,VALID,0,VALID,25.2981,VALID,345,VALID,0.823828,
2009-12-01, 00:33:04,VALID,1003.77,VALID,0,VALID,86.4276,VALID,0,VALID,25.2786,VALID,356,VALID,0.8625,
2009-12-01, 00:34:04,VALID,1003.78,VALID,0,VALID,86.7633,VALID,0,VALID,25.2416,VALID,354,VALID,0.794531,
2009-12-01, 00:35:04,VALID,1003.81,VALID,0,VALID,87.4651,VALID,0,VALID,25.1832,VALID,16,VALID,0.777734,
2009-12-01, 00:36:04,VALID,1003.79,VALID,0,VALID,88.0068,VALID,0,VALID,25.1248,VALID,1,VALID,0.733984,
2009-12-01, 00:37:04,VALID,1003.73,VALID,0,VALID,88.5713,VALID,0,VALID,25.0644,VALID,356,VALID,0.944531,
2009-12-01, 00:38:04,VALID,1003.67,VALID,0,VALID,89.0901,VALID,0,VALID,24.9866,VALID,352,VALID,0.7125,
2009-12-01, 00:39:04,VALID,1003.66,VALID,0,VALID,89.7385,VALID,0,VALID,24.93,VALID,344,VALID,0.879297,
2009-12-01, 00:40:04,VALID,1003.62,VALID,0.5,VALID,90.3641,VALID,0.100563,VALID,24.8503,VALID,356,VALID,1.27891,
2009-12-01, 00:41:04,VALID,1003.6,VALID,0,VALID,90.9591,VALID,0,VALID,24.8132,VALID,357,VALID,1.77305,
2009-12-01, 00:42:04,VALID,1003.55,VALID,0,VALID,91.4474,VALID,0,VALID,24.7335,VALID,353,VALID,1.30117,
2009-12-01, 00:43:04,VALID,1003.55,VALID,0,VALID,91.8212,VALID,0.100563,VALID,24.714,VALID,11,VALID,1.15898,
2009-12-01, 00:44:04,VALID,1003.5,VALID,0,VALID,92.1416,VALID,0,VALID,24.6945,VALID,359,VALID,1.68477,
2009-12-01, 00:45:04,VALID,1003.51,VALID,0,VALID,92.4086,VALID,0,VALID,24.6556,VALID,15,VALID,0.895703,
2009-12-01, 00:46:04,VALID,1003.49,VALID,0,VALID,92.6299,VALID,0.100563,VALID,24.6166,VALID,4,VALID,1.18086,
2009-12-01, 00:47:04,VALID,1003.49,VALID,0,VALID,92.8435,VALID,0,VALID,24.6185,VALID,357,VALID,1.03711,
2009-12-01, 00:48:04,VALID,1003.47,VALID,0,VALID,93.0113,VALID,0,VALID,24.5777,VALID,356,VALID,1.11953,
2009-12-01, 00:49:04,VALID,1003.42,VALID,0.5,VALID,93.1105,VALID,0.100563,VALID,24.5972,VALID,335,VALID,0.823828,
2009-12-01, 00:50:04,VALID,1003.4,VALID,0,VALID,93.1715,VALID,0,VALID,24.6185,VALID,317,VALID,1.40469,
2009-12-01, 00:51:04,VALID,1003.35,VALID,0,VALID,93.2478,VALID,0,VALID,24.6166,VALID,14,VALID,0.942187,
2009-12-01, 00:52:04,VALID,1003.35,VALID,0,VALID,93.3317,VALID,0,VALID,24.6166,VALID,289,VALID,1.32148,
2009-12-01, 00:53:04,VALID,1003.3,VALID,0,VALID,93.4004,VALID,0,VALID,24.6166,VALID,313,VALID,0.750781,
2009-12-01, 00:54:04,VALID,1003.3,VALID,0,VALID,93.4538,VALID,0,VALID,24.6361,VALID,322,VALID,0,
2009-12-01, 00:55:04,VALID,1003.32,VALID,0,VALID,93.553,VALID,0,VALID,24.6556,VALID,290,VALID,0.811719,
2009-12-01, 00:56:04,VALID,1003.32,VALID,0,VALID,93.6598,VALID,0.100563,VALID,24.6964,VALID,304,VALID,0.706641,
2009-12-01, 00:57:04,VALID,1003.32,VALID,0,VALID,93.7895,VALID,0,VALID,24.7548,VALID,310,VALID,1.7168,
2009-12-01, 00:58:05,VALID,1003.35,VALID,0,VALID,93.8963,VALID,0,VALID,24.8113,VALID,311,VALID,1.30078,
2009-12-01, 00:59:05,VALID,1003.35,VALID,0,VALID,93.9497,VALID,0,VALID,24.8697,VALID,1,VALID,0.677734,
2009-12-01, 01:00:05,VALID,1003.34,VALID,0,VALID,93.9649,VALID,0,VALID,24.9282,VALID,280,VALID,0.380078,
2009-12-01, 01:01:05,VALID,1003.33,VALID,0,VALID,93.9649,VALID,0,VALID,25.0079,VALID,300,VALID,1.40547,
2009-12-01, 01:02:05,VALID,1003.3,VALID,0,VALID,93.9649,VALID,0,VALID,25.0255,VALID,279,VALID,0.444141,
2009-12-01, 01:03:05,VALID,1003.29,VALID,0,VALID,93.9573,VALID,0,VALID,25.0644,VALID,281,VALID,0.408984,
2009-12-01, 01:04:05,VALID,1003.28,VALID,0,VALID,93.9268,VALID,0,VALID,25.0858,VALID,286,VALID,1.42969,
2009-12-01, 01:05:05,VALID,1003.28,VALID,0,VALID,93.9268,VALID,0,VALID,25.0839,VALID,312,VALID,0.882422,
2009-12-01, 01:06:05,VALID,1003.26,VALID,0,VALID,93.881,VALID,0,VALID,25.1034,VALID,337,VALID,0.330859,
2009-12-01, 01:07:05,VALID,1003.22,VALID,0,VALID,93.8963,VALID,0,VALID,25.1637,VALID,348,VALID,0.484766,
2009-12-01, 01:08:05,VALID,1003.19,VALID,0.5,VALID,93.9268,VALID,0,VALID,25.1618,VALID,334,VALID,0.468359,
2009-12-01, 01:09:05,VALID,1003.17,VALID,0,VALID,93.9191,VALID,0,VALID,25.1618,VALID,312,VALID,0.341797,
2009-12-01, 01:10:05,VALID,1003.13,VALID,0,VALID,93.9115,VALID,0,VALID,25.1618,VALID,346,VALID,0.482031,
2009-12-01, 01:11:05,VALID,1003.12,VALID,0,VALID,93.9268,VALID,0,VALID,25.1813,VALID,337,VALID,1.35391,
2009-12-01, 01:12:05,VALID,1003.11,VALID,0,VALID,93.9344,VALID,0,VALID,25.2007,VALID,272,VALID,0.878125,
2009-12-01, 01:13:05,VALID,1003.11,VALID,0,VALID,93.9649,VALID,0,VALID,25.2202,VALID,349,VALID,0.541016,
2009-12-01, 01:14:05,VALID,1003.08,VALID,0,VALID,93.9649,VALID,0,VALID,25.2202,VALID,299,VALID,0.325781,
2009-12-01, 01:15:05,VALID,1003.05,VALID,0,VALID,93.9649,VALID,0,VALID,25.2397,VALID,354,VALID,0.962109,
2009-12-01, 01:16:05,VALID,1003.01,VALID,0,VALID,93.9497,VALID,0,VALID,25.2397,VALID,354,VALID,0.715234,
2009-12-01, 01:17:05,VALID,1003.01,VALID,0,VALID,93.9039,VALID,0,VALID,25.2397,VALID,295,VALID,1.68594,
2009-12-01, 01:18:05,VALID,1003.03,VALID,0,VALID,93.7284,VALID,0,VALID,25.2397,VALID,315,VALID,1.81836,
2009-12-01, 01:19:05,VALID,1002.99,VALID,0,VALID,93.4919,VALID,0,VALID,25.2806,VALID,350,VALID,1.1207,
2009-12-01, 01:20:05,VALID,1002.96,VALID,0,VALID,93.3088,VALID,0,VALID,25.2962,VALID,281,VALID,1.80156,
2009-12-01, 01:21:05,VALID,1003,VALID,0,VALID,93.0952,VALID,0,VALID,25.337,VALID,238,VALID,0.703125,
2009-12-01, 01:22:05,VALID,1003.01,VALID,0,VALID,92.8587,VALID,0,VALID,25.3176,VALID,308,VALID,1.52305,
2009-12-01, 01:23:05,VALID,1003,VALID,0,VALID,92.5917,VALID,0,VALID,25.337,VALID,296,VALID,0.508984,
2009-12-01, 01:24:05,VALID,1003,VALID,0,VALID,92.4925,VALID,0,VALID,25.337,VALID,284,VALID,0.939453,
2009-12-01, 01:25:05,VALID,1002.96,VALID,0,VALID,92.2332,VALID,0,VALID,25.339,VALID,317,VALID,1.14531,
2009-12-01, 01:26:05,VALID,1002.96,VALID,0,VALID,92.0806,VALID,0,VALID,25.337,VALID,255,VALID,0.878906,
2009-12-01, 01:27:05,VALID,1002.95,VALID,0,VALID,91.9128,VALID,0,VALID,25.337,VALID,293,VALID,1.36133,
2009-12-01, 01:28:05,VALID,1002.95,VALID,0,VALID,91.9509,VALID,0,VALID,25.3604,VALID,230,VALID,0.469922,
2009-12-01, 01:29:05,VALID,1003,VALID,0,VALID,91.9738,VALID,0,VALID,25.3409,VALID,239,VALID,0.944531,
2009-12-01, 01:30:05,VALID,1002.97,VALID,0,VALID,91.9585,VALID,0,VALID,25.3409,VALID,288,VALID,1.07617,
2009-12-01, 01:31:05,VALID,1002.92,VALID,0,VALID,91.8517,VALID,0,VALID,25.3214,VALID,294,VALID,2.00625,
2009-12-01, 01:32:05,VALID,1002.95,VALID,0,VALID,91.7602,VALID,0,VALID,25.3195,VALID,292,VALID,0.541016,
2009-12-01, 01:33:05,VALID,1002.9,VALID,0,VALID,91.6915,VALID,0,VALID,25.3409,VALID,286,VALID,1.26797,
2009-12-01, 01:34:05,VALID,1002.9,VALID,0,VALID,91.6305,VALID,0,VALID,25.3176,VALID,281,VALID,1.08789,
2009-12-01, 01:35:05,VALID,1002.86,VALID,0,VALID,91.6686,VALID,0,VALID,25.339,VALID,296,VALID,0.819531,
2009-12-01, 01:36:05,VALID,1002.82,VALID,0,VALID,91.8059,VALID,0,VALID,25.339,VALID,295,VALID,0.154687,
2009-12-01, 01:37:05,VALID,1002.81,VALID,0,VALID,91.9051,VALID,0,VALID,25.3604,VALID,293,VALID,0.351953,
2009-12-01, 01:38:05,VALID,1002.76,VALID,0,VALID,91.9585,VALID,0,VALID,25.3214,VALID,288,VALID,0.480078,
2009-12-01, 01:39:05,VALID,1002.71,VALID,0,VALID,91.9585,VALID,0,VALID,25.2806,VALID,23,VALID,0.705078,
2009-12-01, 01:40:05,VALID,1002.69,VALID,0,VALID,91.9204,VALID,0,VALID,25.2611,VALID,275,VALID,0.484375,
2009-12-01, 01:41:05,VALID,1002.65,VALID,0,VALID,91.928,VALID,0,VALID,25.2806,VALID,22,VALID,0.49375,
2009-12-01, 01:42:05,VALID,1002.61,VALID,0,VALID,91.8899,VALID,0,VALID,25.2825,VALID,279,VALID,1.14766,
2009-12-01, 01:43:05,VALID,1002.61,VALID,0,VALID,91.8594,VALID,0,VALID,25.2592,VALID,340,VALID,0.392578,
2009-12-01, 01:44:05,VALID,1002.56,VALID,0,VALID,91.7983,VALID,0,VALID,25.2592,VALID,35,VALID,0.565234,
2009-12-01, 01:45:05,VALID,1002.58,VALID,0,VALID,91.7907,VALID,0,VALID,25.2592,VALID,275,VALID,0.753125,
2009-12-01, 01:46:05,VALID,1002.56,VALID,0,VALID,91.7983,VALID,0,VALID,25.3,VALID,307,VALID,0.869531,
2009-12-01, 01:47:05,VALID,1002.57,VALID,0,VALID,91.928,VALID,0.100563,VALID,25.2981,VALID,294,VALID,0.142188,
2009-12-01, 01:48:05,VALID,1002.57,VALID,0,VALID,91.9356,VALID,0,VALID,25.2786,VALID,243,VALID,0.353516,
2009-12-01, 01:49:05,VALID,1002.58,VALID,0,VALID,91.8136,VALID,0,VALID,25.2592,VALID,293,VALID,0.978516,
2009-12-01, 01:50:05,VALID,1002.54,VALID,0,VALID,91.4932,VALID,0,VALID,25.2592,VALID,304,VALID,1.55352,
2009-12-01, 01:51:05,VALID,1002.53,VALID,0,VALID,91.5237,VALID,0,VALID,25.2786,VALID,310,VALID,0.843359,
2009-12-01, 01:52:05,VALID,1002.48,VALID,0,VALID,91.2109,VALID,0,VALID,25.2592,VALID,303,VALID,0.880859,
2009-12-01, 01:53:05,VALID,1002.44,VALID,0,VALID,91.1728,VALID,0,VALID,25.2981,VALID,301,VALID,0.946094,
2009-12-01, 01:54:05,VALID,1002.4,VALID,0,VALID,91.0049,VALID,0,VALID,25.339,VALID,309,VALID,0.849609,
2009-12-01, 01:55:05,VALID,1002.35,VALID,0,VALID,90.8905,VALID,0,VALID,25.3176,VALID,292,VALID,0.771875,
2009-12-01, 01:56:05,VALID,1002.31,VALID,0,VALID,90.7989,VALID,0,VALID,25.3176,VALID,293,VALID,0.880859,
2009-12-01, 01:57:05,VALID,1002.3,VALID,0,VALID,90.7608,VALID,0,VALID,25.3176,VALID,2,VALID,0.248828,
2009-12-01, 01:58:05,VALID,1002.3,VALID,0,VALID,90.6769,VALID,0,VALID,25.3,VALID,279,VALID,1.50156,
2009-12-01, 01:59:05,VALID,1002.28,VALID,0,VALID,90.387,VALID,0,VALID,25.3195,VALID,315,VALID,1.03437,
2009-12-01, 02:00:05,VALID,1002.28,VALID,0,VALID,90.3717,VALID,0,VALID,25.3195,VALID,305,VALID,0.975,
2009-12-01, 02:01:05,VALID,1002.26,VALID,0,VALID,90.2344,VALID,0,VALID,25.2981,VALID,304,VALID,1.27422,
2009-12-01, 02:02:05,VALID,1002.26,VALID,0,VALID,89.8682,VALID,0,VALID,25.3195,VALID,304,VALID,1.26211,
2009-12-01, 02:03:05,VALID,1002.26,VALID,0,VALID,89.6851,VALID,0,VALID,25.3584,VALID,337,VALID,0.869531,
2009-12-01, 02:04:05,VALID,1002.25,VALID,0,VALID,89.708,VALID,0,VALID,25.3798,VALID,304,VALID,0.868359,
2009-12-01, 02:05:05,VALID,1002.21,VALID,0,VALID,89.5478,VALID,0,VALID,25.3584,VALID,294,VALID,1.54883,
2009-12-01, 02:06:05,VALID,1002.17,VALID,0,VALID,89.4639,VALID,0,VALID,25.3779,VALID,278,VALID,1.28359,
2009-12-01, 02:07:05,VALID,1002.16,VALID,0,VALID,89.4639,VALID,0,VALID,25.3779,VALID,307,VALID,0.619531,
2009-12-01, 02:08:05,VALID,1002.17,VALID,0,VALID,89.2808,VALID,0,VALID,25.3584,VALID,296,VALID,1.9168,
2009-12-01, 02:09:05,VALID,1002.15,VALID,0,VALID,89.2579,VALID,0,VALID,25.3584,VALID,340,VALID,0.817969,
2009-12-01, 02:10:05,VALID,1002.14,VALID,0,VALID,89.4028,VALID,0,VALID,25.3584,VALID,339,VALID,0.472656,
2009-12-01, 02:11:05,VALID,1002.12,VALID,0,VALID,89.3571,VALID,0,VALID,25.339,VALID,296,VALID,1.19062,
2009-12-01, 02:12:05,VALID,1002.12,VALID,0,VALID,89.4639,VALID,0,VALID,25.3,VALID,321,VALID,0.385547,
2009-12-01, 02:13:05,VALID,1002.15,VALID,0,VALID,89.6317,VALID,0,VALID,25.2981,VALID,355,VALID,0.563281,
2009-12-01, 02:14:05,VALID,1002.12,VALID,0,VALID,89.7538,VALID,0.100563,VALID,25.2786,VALID,263,VALID,0.895312,
2009-12-01, 02:15:05,VALID,1002.12,VALID,0,VALID,89.8682,VALID,0,VALID,25.2397,VALID,281,VALID,0.955859,
2009-12-01, 02:16:05,VALID,1002.12,VALID,0,VALID,89.9521,VALID,0.100563,VALID,25.2397,VALID,291,VALID,0.785547,
2009-12-01, 02:17:05,VALID,1002.1,VALID,0,VALID,90.0513,VALID,0,VALID,25.2202,VALID,270,VALID,0.264453,
2009-12-01, 02:18:05,VALID,1002.06,VALID,0,VALID,89.9979,VALID,0,VALID,25.2416,VALID,292,VALID,1.07031,
2009-12-01, 02:19:05,VALID,1002.06,VALID,0,VALID,89.9598,VALID,0,VALID,25.2202,VALID,304,VALID,0.780469,
2009-12-01, 02:20:05,VALID,1002.06,VALID,0,VALID,89.9979,VALID,0,VALID,25.2611,VALID,349,VALID,0.399219,
2009-12-01, 02:21:05,VALID,1002.04,VALID,0,VALID,89.9521,VALID,0.100563,VALID,25.2202,VALID,341,VALID,0.949219,
2009-12-01, 02:22:05,VALID,1002.07,VALID,0,VALID,90.036,VALID,0,VALID,25.2202,VALID,308,VALID,0.550391,
2009-12-01, 02:23:05,VALID,1002.05,VALID,0,VALID,90.0971,VALID,0,VALID,25.2202,VALID,297,VALID,0.942969,
2009-12-01, 02:24:05,VALID,1002.06,VALID,0,VALID,89.9445,VALID,0.100563,VALID,25.2202,VALID,311,VALID,1.27461,
2009-12-01, 02:25:05,VALID,1002.04,VALID,0,VALID,89.9216,VALID,0.100563,VALID,25.2397,VALID,285,VALID,1.19219,
2009-12-01, 02:26:05,VALID,1002.07,VALID,0,VALID,89.9674,VALID,0,VALID,25.2202,VALID,360,VALID,0.406641,
2009-12-01, 02:27:05,VALID,1002.07,VALID,0,VALID,89.769,VALID,0,VALID,25.2397,VALID,292,VALID,1.72148,
2009-12-01, 02:28:05,VALID,1002.08,VALID,0,VALID,89.7233,VALID,0,VALID,25.263,VALID,286,VALID,0.944531,
2009-12-01, 02:29:05,VALID,1002.06,VALID,0,VALID,89.7309,VALID,0,VALID,25.2611,VALID,331,VALID,0.946484,
2009-12-01, 02:30:05,VALID,1002.04,VALID,0,VALID,89.647,VALID,0,VALID,25.3019,VALID,295,VALID,1.41523,
2009-12-01, 02:31:05,VALID,1002.05,VALID,0,VALID,89.6393,VALID,0,VALID,25.2611,VALID,291,VALID,0.907422,
2009-12-01, 02:32:05,VALID,1002.04,VALID,0,VALID,89.7538,VALID,0,VALID,25.2416,VALID,300,VALID,0.837891,
2009-12-01, 02:33:05,VALID,1002.05,VALID,0,VALID,89.8072,VALID,0,VALID,25.2416,VALID,312,VALID,0.8375,
2009-12-01, 02:34:05,VALID,1002.04,VALID,0,VALID,89.8987,VALID,0,VALID,25.2007,VALID,291,VALID,1.225,
2009-12-01, 02:35:05,VALID,1002.08,VALID,0,VALID,89.8911,VALID,0,VALID,25.2221,VALID,294,VALID,1.10977,
2009-12-01, 02:36:05,VALID,1002.08,VALID,0,VALID,89.9216,VALID,0,VALID,25.2435,VALID,277,VALID,1.01133,
2009-12-01, 02:37:05,VALID,1002.06,VALID,0,VALID,89.7919,VALID,0,VALID,25.2221,VALID,304,VALID,1.45313,
2009-12-01, 02:38:05,VALID,1002.05,VALID,0,VALID,89.769,VALID,0,VALID,25.2007,VALID,269,VALID,1.16484,
2009-12-01, 02:39:05,VALID,1002.05,VALID,0,VALID,89.7004,VALID,0,VALID,25.2416,VALID,302,VALID,0.709766,
2009-12-01, 02:40:05,VALID,1002.06,VALID,0,VALID,89.7309,VALID,0,VALID,25.2611,VALID,290,VALID,1.28398,
2009-12-01, 02:41:05,VALID,1002.05,VALID,0,VALID,89.5402,VALID,0,VALID,25.2806,VALID,291,VALID,1.62578,
2009-12-01, 02:42:05,VALID,1002.07,VALID,0,VALID,89.6241,VALID,0,VALID,25.3019,VALID,323,VALID,0.500391,
2009-12-01, 02:43:05,VALID,1002.04,VALID,0,VALID,89.4944,VALID,0,VALID,25.339,VALID,343,VALID,0.366406,
2009-12-01, 02:44:05,VALID,1002.07,VALID,0,VALID,89.4715,VALID,0,VALID,25.339,VALID,316,VALID,0.615625,
2009-12-01, 02:45:05,VALID,1002.04,VALID,0,VALID,89.5402,VALID,0,VALID,25.3176,VALID,293,VALID,1.48633,
2009-12-01, 02:46:05,VALID,1001.99,VALID,0,VALID,89.6393,VALID,0,VALID,25.337,VALID,320,VALID,0.441406,
2009-12-01, 02:47:05,VALID,1002.01,VALID,0,VALID,89.5478,VALID,0,VALID,25.3565,VALID,299,VALID,1.40078,
2009-12-01, 02:48:05,VALID,1001.99,VALID,0,VALID,89.5936,VALID,0.100563,VALID,25.3565,VALID,307,VALID,0.798828,
2009-12-01, 02:49:05,VALID,1001.97,VALID,0,VALID,89.7538,VALID,0,VALID,25.376,VALID,310,VALID,0.320703,
2009-12-01, 02:50:05,VALID,1001.94,VALID,0,VALID,89.7538,VALID,0.100563,VALID,25.3955,VALID,278,VALID,0.622656,
2009-12-01, 02:51:05,VALID,1001.91,VALID,0,VALID,89.7767,VALID,0,VALID,25.376,VALID,261,VALID,0.267969,
2009-12-01, 02:52:05,VALID,1001.87,VALID,0,VALID,89.7156,VALID,0,VALID,25.4169,VALID,336,VALID,1.49648,
2009-12-01, 02:53:05,VALID,1001.89,VALID,0,VALID,89.7385,VALID,0.100563,VALID,25.4149,VALID,339,VALID,0.6375,
2009-12-01, 02:54:05,VALID,1001.88,VALID,0,VALID,89.7233,VALID,0,VALID,25.4558,VALID,303,VALID,1.22422,
2009-12-01, 02:55:05,VALID,1001.85,VALID,0,VALID,89.7309,VALID,0,VALID,25.4344,VALID,331,VALID,1.04258,
2009-12-01, 02:56:05,VALID,1001.84,VALID,0,VALID,89.8148,VALID,0.100563,VALID,25.4539,VALID,325,VALID,0.285547,
2009-12-01, 02:57:05,VALID,1001.84,VALID,0,VALID,89.8606,VALID,0,VALID,25.4539,VALID,334,VALID,0.511719,
2009-12-01, 02:58:05,VALID,1001.84,VALID,0,VALID,89.8072,VALID,0,VALID,25.4149,VALID,360,VALID,0.466016,
2009-12-01, 02:59:05,VALID,1001.82,VALID,0,VALID,89.9674,VALID,0,VALID,25.4363,VALID,352,VALID,0.520703,
2009-12-01, 03:00:05,VALID,1001.85,VALID,0,VALID,90.0894,VALID,0,VALID,25.3955,VALID,332,VALID,0.1875,
2009-12-01, 03:01:05,VALID,1001.87,VALID,0,VALID,90.0818,VALID,0,VALID,25.4169,VALID,341,VALID,1.00859,
2009-12-01, 03:02:05,VALID,1001.89,VALID,0,VALID,90.0742,VALID,0,VALID,25.4363,VALID,305,VALID,1.01523,
2009-12-01, 03:03:05,VALID,1001.92,VALID,0,VALID,90.12,VALID,0,VALID,25.4363,VALID,295,VALID,0.836719,
2009-12-01, 03:04:05,VALID,1001.95,VALID,0,VALID,90.0284,VALID,0,VALID,25.4344,VALID,306,VALID,0.796875,
2009-12-01, 03:05:05,VALID,1002,VALID,0,VALID,90.0437,VALID,0,VALID,25.4948,VALID,335,VALID,0.333594,
2009-12-01, 03:06:05,VALID,1001.99,VALID,0,VALID,90.0437,VALID,0,VALID,25.4734,VALID,1,VALID,0.491016,
2009-12-01, 03:07:05,VALID,1002,VALID,0,VALID,90.036,VALID,0,VALID,25.5337,VALID,319,VALID,0.558594,
2009-12-01, 03:08:05,VALID,1002.03,VALID,0,VALID,90.0818,VALID,0,VALID,25.5142,VALID,274,VALID,0.767969,
2009-12-01, 03:09:05,VALID,1002.04,VALID,0,VALID,90.1123,VALID,0,VALID,25.5357,VALID,298,VALID,1.0457,
2009-12-01, 03:10:05,VALID,1002.02,VALID,0,VALID,90.1123,VALID,0,VALID,25.5337,VALID,24,VALID,0.410547,
2009-12-01, 03:11:05,VALID,1002.04,VALID,0,VALID,90.0742,VALID,0,VALID,25.5551,VALID,296,VALID,0.403516,
2009-12-01, 03:12:05,VALID,1002.03,VALID,0,VALID,90.1657,VALID,0,VALID,25.5746,VALID,312,VALID,0.0480469,
2009-12-01, 03:13:05,VALID,1002.05,VALID,0,VALID,90.2878,VALID,0,VALID,25.5707,VALID,266,VALID,0.569531,
2009-12-01, 03:14:05,VALID,1002.02,VALID,0,VALID,90.387,VALID,0,VALID,25.5921,VALID,320,VALID,0.740625,
2009-12-01, 03:15:05,VALID,1002.03,VALID,0,VALID,90.3107,VALID,0,VALID,25.5707,VALID,318,VALID,0.449219,
2009-12-01, 03:16:05,VALID,1002,VALID,0,VALID,90.2802,VALID,0,VALID,25.5707,VALID,269,VALID,0.416406,
2009-12-01, 03:17:05,VALID,1002.05,VALID,0,VALID,90.3412,VALID,0,VALID,25.6097,VALID,282,VALID,0.449609,
2009-12-01, 03:18:05,VALID,1002.01,VALID,0,VALID,90.3717,VALID,0,VALID,25.6097,VALID,279,VALID,0.528906,
2009-12-01, 03:19:05,VALID,1002.01,VALID,0,VALID,90.387,VALID,0,VALID,25.6292,VALID,288,VALID,0.653125,
2009-12-01, 03:20:05,VALID,1001.99,VALID,0,VALID,90.3793,VALID,0,VALID,25.67,VALID,289,VALID,0.152344,
2009-12-01, 03:21:05,VALID,1001.97,VALID,0,VALID,90.3107,VALID,0,VALID,25.6486,VALID,339,VALID,0.484766,
2009-12-01, 03:22:05,VALID,1001.94,VALID,0,VALID,90.3107,VALID,0,VALID,25.67,VALID,328,VALID,0.140625,
2009-12-01, 03:23:05,VALID,1001.94,VALID,0,VALID,90.3412,VALID,0,VALID,25.6486,VALID,355,VALID,0.0679687,
2009-12-01, 03:24:05,VALID,1001.91,VALID,0,VALID,90.4556,VALID,0,VALID,25.6486,VALID,330,VALID,0.862109,
2009-12-01, 03:25:05,VALID,1001.88,VALID,0,VALID,90.4251,VALID,0,VALID,25.6486,VALID,294,VALID,0.699219,
2009-12-01, 03:26:05,VALID,1001.86,VALID,0,VALID,90.4709,VALID,0,VALID,25.672,VALID,324,VALID,0.4125,
2009-12-01, 03:27:05,VALID,1001.78,VALID,0,VALID,90.4251,VALID,0,VALID,25.6895,VALID,25,VALID,0.794531,
2009-12-01, 03:28:05,VALID,1001.71,VALID,0,VALID,90.3793,VALID,0,VALID,25.6681,VALID,1,VALID,1.23594,
2009-12-01, 03:29:05,VALID,1001.74,VALID,0,VALID,90.3336,VALID,0,VALID,25.6876,VALID,2,VALID,0.933594,
2009-12-01, 03:30:05,VALID,1001.71,VALID,0,VALID,90.3412,VALID,0,VALID,25.7285,VALID,310,VALID,0.851563,
2009-12-01, 03:31:05,VALID,1001.68,VALID,0,VALID,90.2725,VALID,0,VALID,25.7285,VALID,293,VALID,1.44687,
2009-12-01, 03:32:05,VALID,1001.72,VALID,0,VALID,90.2878,VALID,0,VALID,25.7071,VALID,15,VALID,0.256641,
2009-12-01, 03:33:05,VALID,1001.72,VALID,0,VALID,90.3488,VALID,0.100563,VALID,25.7246,VALID,282,VALID,0.730078,
2009-12-01, 03:34:05,VALID,1001.72,VALID,0,VALID,90.3946,VALID,0,VALID,25.7265,VALID,293,VALID,1.02227,
2009-12-01, 03:35:05,VALID,1001.75,VALID,0,VALID,90.4556,VALID,0,VALID,25.7265,VALID,290,VALID,1.08164,
2009-12-01, 03:36:05,VALID,1001.77,VALID,0,VALID,90.5777,VALID,0,VALID,25.709,VALID,283,VALID,0.519531,
2009-12-01, 03:37:05,VALID,1001.79,VALID,0,VALID,90.5319,VALID,0,VALID,25.6876,VALID,291,VALID,0.0816406,
2009-12-01, 03:38:05,VALID,1001.78,VALID,0,VALID,90.6845,VALID,0,VALID,25.6876,VALID,294,VALID,0.257031,
2009-12-01, 03:39:04,VALID,1001.82,VALID,0,VALID,90.654,VALID,0.100563,VALID,25.6681,VALID,293,VALID,0.798828,
2009-12-01, 03:40:04,VALID,1001.83,VALID,0,VALID,90.7226,VALID,0,VALID,25.67,VALID,304,VALID,0.733203,
2009-12-01, 03:41:04,VALID,1001.84,VALID,0,VALID,90.7303,VALID,0,VALID,25.6681,VALID,284,VALID,0.365625,
2009-12-01, 03:42:04,VALID,1001.84,VALID,0,VALID,90.6921,VALID,0,VALID,25.6681,VALID,292,VALID,0.861328,
2009-12-01, 03:43:04,VALID,1001.79,VALID,0,VALID,90.7455,VALID,0,VALID,25.6486,VALID,295,VALID,1.13594,
2009-12-01, 03:44:04,VALID,1001.79,VALID,0,VALID,90.7226,VALID,0,VALID,25.6486,VALID,273,VALID,0.214453,